STARLINK-32660 (62205 NORAD) Tracking and Keplerian Element Data

This shows tracking and keplerian element data for the satellite.

Feedback or suggestion? Click here.




ElementValue
Catalog62205
NameSTARLINK-32660
Epoch Orbit949
Epoch Day34.2657929
Epoch Year2025
RAAN4.788
Inclination43.0065
Eccentricity0.0001944
Argument of Perigee257.8846
Mean Anonmoly102.1793
Mean Motion15.40722091
Decay Rate3.783E-05
L11 62205U 24229P 25034.26579290 .00003783 00000+0 97728-4 0 9995
L22 62205 43.0065 4.7880 0001944 257.8846 102.1793 15.40722091 9496



Live tracking and technical data element details for STARLINK-32660 (NORAD 62205). STARLINK-32660 can be tracked NOW for your location showing map with azimuth and elevation plus other details from your city location.







IsCatalogInMostPopularTable: catalog: 62205, numindb: 17
Update: records affected: 1



GetName: 62205 STARLINK-32660

Hit Count: updated at: Sun, 18 May 2025 22:37:40 GMT